Regional Weather Roundup
Issued by NWS Sioux Falls, SD

Home | Current Version | Previous Version | Graphics & Text | Print | Product List | Glossary Off
Versions: 1 2 3 4 5 6 7 8 9 10 11 12 13 14 15 16 17 18 19 20 21 22 23 24 25 26 27 28 29 30 31 32 33 34 35 36 37 38 39 40 41 42 43 44 45 46 47 48 49 50

000
ASUS43 KFSD 250010
RWRFSD

WEATHER ROUNDUP FOR SE SOUTH DAKOTA/SW MINNESOTA/NW IOWA
NATIONAL WEATHER SERVICE SIOUX FALLS SD
700 PM CDT TUE MAY 24 2016

NOTE: "FAIR" INDICATES FEW OR NO CLOUDS BELOW 12,000 FEET WITH NO
SIGNIFICANT WEATHER AND OR OBSTRUCTIONS TO VISIBILITY.


SDZ038>040-050-052>070-250100-
SOUTHEAST SOUTH DAKOTA

CITY           SKY/WX    TMP DP  RH WIND       PRES   REMARKS
BROOKINGS      SUNNY     83  40  21 CALM      29.85F
CHAMBERLAIN    SUNNY     82  52  34 E5        29.80F
6HR MIN TEMP:  78; 6HR MAX TEMP:  83;

HURON          SUNNY     82  49  31 E6        29.81F
6HR MIN TEMP:  76; 6HR MAX TEMP:  85;

MADISON        FAIR      81  48  32 S7        29.86F
MITCHELL       SUNNY     82  55  39 E8        29.82F
6HR MIN TEMP:  80; 6HR MAX TEMP:  85;

SIOUX FALLS    MOSUNNY   81  52  36 E6        29.84F
6HR MIN TEMP:  78; 6HR MAX TEMP:  86;

WINNER         FAIR      81  51  35 E14       29.79F
YANKTON        SUNNY     82  57  42 E10       29.80F
$$

MNZ071-072-080-081-089-090-097-098-250100-
SOUTHWEST MINNESOTA

CITY           SKY/WX    TMP DP  RH WIND       PRES   REMARKS
FAIRMONT         N/A     82  50  32 CALM      29.88S VSB 1/2
JACKSON        SUNNY     82  41  23 CALM      29.89S
LUVERNE        SUNNY     82  34  17 CALM      29.86F
MARSHALL       SUNNY     84  45  25 CALM      29.85
6HR MIN TEMP:  79; 6HR MAX TEMP:  87;

MONTEVIDEO     SUNNY     82  57  42 SE17      29.86F
PIPESTONE      SUNNY     84  37  18 CALM      29.87S
REDWOOD FALLS  PTSUNNY   77  56  48 NE10G17   29.85R
TRACY          SUNNY     86  39  19 W5        29.86F
WINDOM         SUNNY     82  54  36 CALM      29.88S
WORTHINGTON    SUNNY     80  57  45 S8        29.88
$$

IAZ001>003-012>014-020>022-031-032-NEZ013-014-SDZ071-250100-
NORTHWEST IOWA

CITY           SKY/WX    TMP DP  RH WIND       PRES   REMARKS
CHEROKEE       MOSUNNY   81  62  52 SE3       29.86F
DENISON        MOSUNNY   79  63  57 SE6       29.86S
ESTHERVILLE    MOSUNNY   81  54  39 S7        29.87F
LE MARS        SUNNY     81  63  54 SE7       29.86S
ORANGE CITY    SUNNY     81  61  50 SE6       29.87S
SHELDON        SUNNY     82  57  42 S6        29.86S
SIOUX CITY     SUNNY     81  66  60 SE10      29.84F
6HR MIN TEMP:  77; 6HR MAX TEMP:  83;

SPENCER        SUNNY     82  53  36 SE5       29.87F
6HR MIN TEMP:  74; 6HR MAX TEMP:  83;

STORM LAKE     SUNNY     81  61  50 SE12      29.89S
$$

ABBREVIATIONS USED IN REMARKS
   TC - TEMPERATURE IN CELSIUS
  WCI - WIND CHILL INDEX
   HX - HEAT INDEX
  VSB - VISIBILITY




USA.gov is the U.S. government's official web portal to all federal, state and local government web resources and services.